When you browse on this site, cookies collect data to enhance your experience and personalize the content and advertising you see.
Visit our Privacy Policy to learn more. By continuing to use the site, you agree to this use of cookies and data.
  • In Slovakia
  • List of Countries
  • For 7 days
  • Water Temperature
  • Weather Map
  • Weather Widgets
  • user-avatar
    Login

    Hourly Weather Escaldes-Engordany

    Today, 18 September, Wednesday

    Time Temperature Precipitation Wind Pressure Humidity
    00:00 +14°C° 0 mm 1 mps 639 mmHg 84%
    01:00 +14°C° 0.3 mm 1 mps 639 mmHg 84%
    02:00 +14°C° 0.3 mm 1 mps 639 mmHg 83%
    03:00 +14°C° 0.3 mm 1 mps 638 mmHg 82%
    04:00 +14°C° 0 mm 1 mps 639 mmHg 82%
    05:00 +14°C° 0 mm 1 mps 639 mmHg 81%
    06:00 +14°C° 0 mm 1 mps 639 mmHg 81%
    07:00 +16°C° 0.3 mm 1 mps 640 mmHg 76%
    08:00 +18°C° 0.3 mm 1 mps 641 mmHg 71%
    09:00 +20°C° 0.3 mm 1 mps 641 mmHg 66%
    10:00 +21°C° 1.1 mm 1 mps 641 mmHg 65%
    11:00 +21°C° 1.1 mm 1 mps 642 mmHg 64%
    12:00 +21°C° 1.1 mm 1 mps 642 mmHg 63%
    13:00 +21°C° 1.6 mm 1 mps 641 mmHg 65%
    14:00 +20°C° 1.6 mm 1 mps 641 mmHg 67%
    15:00 +20°C° 1.6 mm 1 mps 641 mmHg 69%
    16:00 +19°C° 0.7 mm 1 mps 640 mmHg 72%
    17:00 +16°C° 0.7 mm 1 mps 640 mmHg 75%
    18:00 +15°C° 0.7 mm 1 mps 639 mmHg 78%
    19:00 +14°C° 0.1 mm 1 mps 639 mmHg 79%
    20:00 +13°C° 0.1 mm 1 mps 639 mmHg 79%
    21:00 +13°C° 0.1 mm 1 mps 640 mmHg 80%
    22:00 +13°C° 0.2 mm 1 mps 640 mmHg 81%
    23:00 +12°C° 0.2 mm 1 mps 640 mmHg 81%

    Tomorrow, 19 September, Thursday

    Time Temperature Precipitation Wind Pressure Humidity
    00:00 +12°C° 0.2 mm 1 mps 640 mmHg 82%
    01:00 +12°C° 0 mm 1 mps 639 mmHg 81%
    02:00 +12°C° 0 mm 1 mps 639 mmHg 81%
    03:00 +12°C° 0 mm 1 mps 639 mmHg 80%
    04:00 +12°C° 0 mm 1 mps 639 mmHg 80%
    05:00 +12°C° 0 mm 1 mps 639 mmHg 81%
    06:00 +12°C° 0 mm 1 mps 639 mmHg 81%
    07:00 +14°C° 0 mm 1 mps 640 mmHg 75%
    08:00 +16°C° 0 mm 1 mps 641 mmHg 69%
    09:00 +19°C° 0 mm 1 mps 643 mmHg 63%
    10:00 +20°C° 0.5 mm 1 mps 642 mmHg 63%
    11:00 +20°C° 0.5 mm 1 mps 642 mmHg 63%
    12:00 +20°C° 0.5 mm 2 mps 642 mmHg 63%
    13:00 +20°C° 1.1 mm 1 mps 642 mmHg 68%
    14:00 +19°C° 1.1 mm 1 mps 641 mmHg 73%
    15:00 +18°C° 1.1 mm 1 mps 641 mmHg 78%
    16:00 +16°C° 1.1 mm 1 mps 641 mmHg 82%
    17:00 +15°C° 1.1 mm 1 mps 640 mmHg 85%
    18:00 +14°C° 1.1 mm 1 mps 640 mmHg 89%
    19:00 +14°C° 0.5 mm 1 mps 640 mmHg 90%
    20:00 +13°C° 0.5 mm 1 mps 640 mmHg 90%
    21:00 +13°C° 0.5 mm 1 mps 641 mmHg 91%
    22:00 +13°C° 0.2 mm 1 mps 641 mmHg 91%
    23:00 +12°C° 0.2 mm 1 mps 641 mmHg 91%

    Day after tomorrow, 20 September, Friday

    Time Temperature Precipitation Wind Pressure Humidity
    00:00 +12°C° 0.2 mm 1 mps 640 mmHg 91%
    01:00 +12°C° 0 mm 1 mps 640 mmHg 91%
    02:00 +12°C° 0 mm 1 mps 640 mmHg 91%
    03:00 +12°C° 0 mm 1 mps 640 mmHg 91%
    04:00 +12°C° 0 mm 1 mps 640 mmHg 91%
    05:00 +12°C° 0 mm 1 mps 640 mmHg 91%
    06:00 +12°C° 0 mm 1 mps 639 mmHg 90%
    07:00 +13°C° 0 mm 1 mps 640 mmHg 85%
    08:00 +15°C° 0 mm 2 mps 641 mmHg 80%
    09:00 +17°C° 0 mm 2 mps 642 mmHg 74%
    10:00 +18°C° 0.7 mm 2 mps 642 mmHg 73%
    11:00 +18°C° 0.7 mm 2 mps 642 mmHg 71%
    12:00 +19°C° 0.7 mm 2 mps 642 mmHg 70%
    13:00 +18°C° 1.1 mm 2 mps 642 mmHg 72%
    14:00 +18°C° 1.1 mm 2 mps 641 mmHg 75%
    15:00 +18°C° 1.1 mm 2 mps 641 mmHg 78%
    16:00 +16°C° 0.5 mm 2 mps 640 mmHg 82%
    17:00 +15°C° 0.5 mm 2 mps 640 mmHg 87%
    18:00 +13°C° 0.5 mm 1 mps 639 mmHg 92%
    19:00 +13°C° 0.1 mm 2 mps 640 mmHg 92%
    20:00 +13°C° 0.1 mm 2 mps 640 mmHg 93%
    21:00 +13°C° 0.1 mm 2 mps 640 mmHg 94%
    22:00 +12°C° 0 mm 2 mps 639 mmHg 93%
    23:00 +12°C° 0 mm 2 mps 639 mmHg 92%

    21 September, Saturday

    Time Temperature Precipitation Wind Pressure Humidity
    00:00 +12°C° 0 mm 2 mps 639 mmHg 91%
    01:00 +12°C° 0 mm 2 mps 638 mmHg 89%
    02:00 +12°C° 0 mm 2 mps 638 mmHg 88%
    03:00 +12°C° 0 mm 2 mps 638 mmHg 87%
    04:00 +12°C° 0.2 mm 2 mps 638 mmHg 88%
    05:00 +12°C° 0.2 mm 2 mps 637 mmHg 89%
    06:00 +12°C° 0.2 mm 2 mps 637 mmHg 90%
    07:00 +12°C° 0.6 mm 2 mps 637 mmHg 90%
    08:00 +13°C° 0.6 mm 2 mps 637 mmHg 91%
    09:00 +13°C° 0.6 mm 2 mps 638 mmHg 91%
    10:00 +13°C° 1.2 mm 2 mps 637 mmHg 92%
    11:00 +13°C° 1.2 mm 2 mps 637 mmHg 93%
    12:00 +14°C° 1.2 mm 2 mps 637 mmHg 94%
    13:00 +14°C° 1.4 mm 2 mps 636 mmHg 94%
    14:00 +14°C° 1.4 mm 2 mps 636 mmHg 95%
    15:00 +14°C° 1.4 mm 2 mps 636 mmHg 95%
    16:00 +14°C° 0.2 mm 2 mps 636 mmHg 94%
    17:00 +13°C° 0.2 mm 2 mps 636 mmHg 94%
    18:00 +13°C° 0.2 mm 2 mps 636 mmHg 93%
    19:00 +12°C° 0 mm 2 mps 636 mmHg 92%
    20:00 +12°C° 0 mm 2 mps 636 mmHg 91%
    21:00 +12°C° 0 mm 1 mps 636 mmHg 90%
    22:00 +12°C° 0 mm 1 mps 636 mmHg 89%
    23:00 +12°C° 0 mm 1 mps 636 mmHg 89%

    22 September, Sunday

    Time Temperature Precipitation Wind Pressure Humidity
    00:00 +12°C° 0 mm 1 mps 636 mmHg 89%
    01:00 +12°C° 0.1 mm 1 mps 636 mmHg 89%
    02:00 +12°C° 0.1 mm 2 mps 636 mmHg 89%
    03:00 +12°C° 0.1 mm 2 mps 636 mmHg 90%
    04:00 +12°C° 0 mm 1 mps 636 mmHg 90%
    05:00 +12°C° 0 mm 1 mps 636 mmHg 90%
    06:00 +12°C° 0 mm 1 mps 636 mmHg 90%
    07:00 +13°C° 0 mm 1 mps 636 mmHg 85%
    08:00 +15°C° 0 mm 1 mps 637 mmHg 80%
    09:00 +18°C° 0 mm 1 mps 638 mmHg 75%
    10:00 +17°C° 0.2 mm 2 mps 638 mmHg 74%
    11:00 +17°C° 0.2 mm 2 mps 638 mmHg 73%
    12:00 +18°C° 0.2 mm 2 mps 638 mmHg 71%
    13:00 +17°C° 0.2 mm 2 mps 638 mmHg 73%
    14:00 +16°C° 0.2 mm 2 mps 638 mmHg 74%
    15:00 +16°C° 0.2 mm 2 mps 638 mmHg 75%
    16:00 +14°C° 0.1 mm 2 mps 638 mmHg 81%
    17:00 +13°C° 0.1 mm 1 mps 638 mmHg 87%
    18:00 +11°C° 0.1 mm 1 mps 638 mmHg 93%
    19:00 +11°C° 0 mm 1 mps 638 mmHg 94%
    20:00 +11°C° 0 mm 1 mps 639 mmHg 94%
    21:00 +10°C° 0 mm 1 mps 639 mmHg 94%
    22:00 +10°C° 0 mm 1 mps 639 mmHg 94%
    23:00 +10°C° 0 mm 1 mps 639 mmHg 93%

    23 September, Monday

    Time Temperature Precipitation Wind Pressure Humidity
    00:00 +10°C° 0 mm 1 mps 639 mmHg 93%
    01:00 +9°C° 0 mm 1 mps 640 mmHg 93%
    02:00 +9°C° 0 mm 1 mps 640 mmHg 93%
    03:00 +9°C° 0 mm 1 mps 640 mmHg 93%
    04:00 +8°C° 0 mm 1 mps 640 mmHg 92%
    05:00 +8°C° 0 mm 1 mps 640 mmHg 92%
    06:00 +7°C° 0 mm 0 mps 640 mmHg 92%
    07:00 +10°C° 0 mm 1 mps 641 mmHg 85%
    08:00 +12°C° 0 mm 1 mps 642 mmHg 77%
    09:00 +14°C° 0 mm 1 mps 643 mmHg 70%
    10:00 +15°C° 0 mm 1 mps 643 mmHg 64%
    11:00 +16°C° 0 mm 1 mps 643 mmHg 58%
    12:00 +18°C° 0 mm 1 mps 643 mmHg 51%
    13:00 +18°C° 0 mm 1 mps 643 mmHg 52%
    14:00 +18°C° 0 mm 1 mps 643 mmHg 54%
    15:00 +18°C° 0 mm 1 mps 643 mmHg 55%
    16:00 +15°C° 0 mm 1 mps 642 mmHg 64%
    17:00 +13°C° 0 mm 1 mps 641 mmHg 73%
    18:00 +10°C° 0 mm 0 mps 641 mmHg 82%
    19:00 +10°C° 0 mm 0 mps 641 mmHg 80%
    20:00 +11°C° 0 mm 1 mps 641 mmHg 79%
    21:00 +11°C° 0 mm 1 mps 642 mmHg 78%
    22:00 +11°C° 0 mm 1 mps 641 mmHg 73%
    23:00 +11°C° 0 mm 1 mps 641 mmHg 68%
    Show more